When you browse on this site, cookies collect data to enhance your experience and personalize the content and advertising you see.
Visit our Privacy Policy to learn more. By continuing to use the site, you agree to this use of cookies and data.
  • en Suisse
  • Liste des pays
  • À 7 jours
  • Température de l'eau
  • Carte satellitaire
  • Carte météo
  • Widgets météo
  • user-avatar
    Se connecter

    Météo par heure à Plavni

    Ce jour, 20 Avril, Samedi

    Heure Température Précipitation Vent Pression Humidité
    00:00 +7°C° 0 mm 3 m/s 768 mmHg 64%
    01:00 +7°C° 0 mm 3 m/s 768 mmHg 63%
    02:00 +7°C° 0 mm 3 m/s 768 mmHg 62%
    03:00 +5°C° 0 mm 3 m/s 768 mmHg 64%
    04:00 +5°C° 0 mm 3 m/s 768 mmHg 65%
    05:00 +4°C° 0 mm 4 m/s 768 mmHg 66%
    06:00 +6°C° 0 mm 4 m/s 768 mmHg 60%
    07:00 +7°C° 0 mm 5 m/s 768 mmHg 54%
    08:00 +9°C° 0 mm 6 m/s 768 mmHg 48%
    09:00 +10°C° 0 mm 6 m/s 768 mmHg 43%
    10:00 +11°C° 0 mm 6 m/s 768 mmHg 39%
    11:00 +12°C° 0 mm 7 m/s 768 mmHg 34%
    12:00 +14°C° 0 mm 7 m/s 768 mmHg 34%
    13:00 +14°C° 0 mm 6 m/s 768 mmHg 34%
    14:00 +15°C° 0 mm 6 m/s 768 mmHg 33%
    15:00 +14°C° 0 mm 6 m/s 768 mmHg 35%
    16:00 +14°C° 0 mm 6 m/s 768 mmHg 36%
    17:00 +14°C° 0 mm 5 m/s 767 mmHg 38%
    18:00 +13°C° 0 mm 5 m/s 768 mmHg 41%
    19:00 +12°C° 0 mm 4 m/s 768 mmHg 44%
    20:00 +11°C° 0 mm 3 m/s 768 mmHg 46%
    21:00 +11°C° 0 mm 3 m/s 768 mmHg 48%
    22:00 +10°C° 0 mm 3 m/s 768 mmHg 50%
    23:00 +10°C° 0 mm 3 m/s 768 mmHg 51%

    Demain, 21 Avril, Dimanche

    Heure Température Précipitation Vent Pression Humidité
    00:00 +9°C° 0 mm 3 m/s 768 mmHg 53%
    01:00 +9°C° 0 mm 2 m/s 767 mmHg 54%
    02:00 +8°C° 0 mm 2 m/s 767 mmHg 56%
    03:00 +8°C° 0 mm 2 m/s 767 mmHg 56%
    04:00 +7°C° 0 mm 2 m/s 767 mmHg 57%
    05:00 +7°C° 0 mm 2 m/s 767 mmHg 57%
    06:00 +9°C° 0 mm 1 m/s 767 mmHg 54%
    07:00 +11°C° 0 mm 1 m/s 767 mmHg 50%
    08:00 +12°C° 0 mm 1 m/s 767 mmHg 46%
    09:00 +13°C° 0 mm 1 m/s 767 mmHg 42%
    10:00 +14°C° 0 mm 1 m/s 767 mmHg 38%
    11:00 +15°C° 0 mm 1 m/s 767 mmHg 33%
    12:00 +15°C° 0 mm 1 m/s 766 mmHg 33%
    13:00 +15°C° 0 mm 1 m/s 766 mmHg 33%
    14:00 +16°C° 0 mm 2 m/s 766 mmHg 33%
    15:00 +15°C° 0 mm 2 m/s 766 mmHg 34%
    16:00 +14°C° 0 mm 3 m/s 765 mmHg 35%
    17:00 +14°C° 0 mm 3 m/s 765 mmHg 36%
    18:00 +13°C° 0 mm 3 m/s 766 mmHg 40%
    19:00 +11°C° 0 mm 3 m/s 766 mmHg 43%
    20:00 +10°C° 0 mm 3 m/s 766 mmHg 47%
    21:00 +9°C° 0 mm 3 m/s 766 mmHg 49%
    22:00 +8°C° 0 mm 2 m/s 766 mmHg 51%
    23:00 +7°C° 0 mm 2 m/s 766 mmHg 53%

    Après-demain, 22 Avril, Lundi

    Heure Température Précipitation Vent Pression Humidité
    00:00 +7°C° 0 mm 2 m/s 766 mmHg 53%
    01:00 +6°C° 0 mm 2 m/s 766 mmHg 54%
    02:00 +7°C° 0 mm 1 m/s 766 mmHg 54%
    03:00 +7°C° 0 mm 1 m/s 766 mmHg 54%
    04:00 +6°C° 0 mm 1 m/s 766 mmHg 54%
    05:00 +6°C° 0 mm 1 m/s 766 mmHg 54%
    06:00 +8°C° 0 mm 1 m/s 767 mmHg 49%
    07:00 +9°C° 0 mm 2 m/s 767 mmHg 45%
    08:00 +12°C° 0 mm 2 m/s 767 mmHg 41%
    09:00 +12°C° 0 mm 3 m/s 767 mmHg 38%
    10:00 +14°C° 0 mm 4 m/s 767 mmHg 35%
    11:00 +15°C° 0 mm 4 m/s 768 mmHg 32%
    12:00 +15°C° 0 mm 4 m/s 767 mmHg 33%
    13:00 +15°C° 0 mm 5 m/s 767 mmHg 34%
    14:00 +16°C° 0 mm 5 m/s 767 mmHg 35%
    15:00 +15°C° 0 mm 5 m/s 767 mmHg 35%
    16:00 +15°C° 0 mm 5 m/s 767 mmHg 35%
    17:00 +15°C° 0 mm 5 m/s 767 mmHg 36%
    18:00 +13°C° 0 mm 5 m/s 767 mmHg 40%
    19:00 +11°C° 0 mm 4 m/s 768 mmHg 45%
    20:00 +9°C° 0 mm 3 m/s 768 mmHg 49%
    21:00 +9°C° 0 mm 3 m/s 768 mmHg 52%
    22:00 +8°C° 0 mm 2 m/s 768 mmHg 54%
    23:00 +8°C° 0 mm 2 m/s 768 mmHg 57%

    23 Avril, Mardi

    Heure Température Précipitation Vent Pression Humidité
    00:00 +7°C° 0 mm 2 m/s 768 mmHg 60%
    01:00 +7°C° 0 mm 2 m/s 768 mmHg 64%
    02:00 +7°C° 0 mm 2 m/s 768 mmHg 67%
    03:00 +6°C° 0 mm 2 m/s 768 mmHg 69%
    04:00 +6°C° 0 mm 2 m/s 769 mmHg 72%
    05:00 +5°C° 0 mm 3 m/s 769 mmHg 74%
    06:00 +8°C° 0 mm 3 m/s 769 mmHg 69%
    07:00 +10°C° 0 mm 4 m/s 769 mmHg 63%
    08:00 +12°C° 0 mm 5 m/s 769 mmHg 58%
    09:00 +13°C° 0 mm 5 m/s 769 mmHg 53%
    10:00 +15°C° 0 mm 6 m/s 769 mmHg 47%
    11:00 +16°C° 0 mm 6 m/s 769 mmHg 42%
    12:00 +16°C° 0 mm 6 m/s 769 mmHg 41%
    13:00 +17°C° 0 mm 6 m/s 769 mmHg 39%
    14:00 +17°C° 0 mm 6 m/s 769 mmHg 38%
    15:00 +16°C° 0 mm 6 m/s 769 mmHg 40%
    16:00 +15°C° 0 mm 6 m/s 768 mmHg 42%
    17:00 +15°C° 0 mm 5 m/s 768 mmHg 43%
    18:00 +14°C° 0 mm 5 m/s 769 mmHg 47%
    19:00 +13°C° 0 mm 4 m/s 769 mmHg 50%
    20:00 +12°C° 0 mm 3 m/s 769 mmHg 54%
    21:00 +11°C° 0 mm 3 m/s 769 mmHg 57%
    22:00 +11°C° 0 mm 3 m/s 769 mmHg 60%
    23:00 +10°C° 0 mm 2 m/s 769 mmHg 64%

    24 Avril, Mercredi

    Heure Température Précipitation Vent Pression Humidité
    00:00 +10°C° 0 mm 2 m/s 769 mmHg 67%
    01:00 +9°C° 0 mm 2 m/s 769 mmHg 70%
    02:00 +8°C° 0 mm 2 m/s 769 mmHg 74%
    03:00 +8°C° 0 mm 2 m/s 769 mmHg 74%
    04:00 +8°C° 0 mm 2 m/s 769 mmHg 74%
    05:00 +8°C° 0 mm 2 m/s 769 mmHg 74%
    06:00 +10°C° 0 mm 3 m/s 769 mmHg 69%
    07:00 +11°C° 0 mm 3 m/s 770 mmHg 64%
    08:00 +12°C° 0 mm 4 m/s 770 mmHg 59%
    09:00 +14°C° 0 mm 4 m/s 770 mmHg 56%
    10:00 +15°C° 0 mm 4 m/s 770 mmHg 52%
    11:00 +17°C° 0 mm 4 m/s 770 mmHg 49%
    12:00 +17°C° 0 mm 5 m/s 770 mmHg 46%
    13:00 +19°C° 0 mm 5 m/s 770 mmHg 42%
    14:00 +20°C° 0 mm 5 m/s 769 mmHg 39%
    15:00 +19°C° 0 mm 5 m/s 769 mmHg 41%
    16:00 +19°C° 0 mm 5 m/s 769 mmHg 43%
    17:00 +17°C° 0 mm 6 m/s 769 mmHg 44%
    18:00 +15°C° 0 mm 5 m/s 769 mmHg 52%
    19:00 +13°C° 0 mm 4 m/s 770 mmHg 59%
    20:00 +12°C° 0 mm 3 m/s 770 mmHg 67%
    21:00 +11°C° 0 mm 3 m/s 770 mmHg 72%
    22:00 +10°C° 0 mm 3 m/s 770 mmHg 77%
    23:00 +9°C° 0 mm 2 m/s 770 mmHg 83%

    25 Avril, Jeudi

    Heure Température Précipitation Vent Pression Humidité
    00:00 +9°C° 0 mm 2 m/s 770 mmHg 85%
    01:00 +8°C° 0 mm 2 m/s 770 mmHg 87%
    02:00 +8°C° 0 mm 2 m/s 770 mmHg 90%
    03:00 +8°C° 0 mm 2 m/s 770 mmHg 90%
    04:00 +8°C° 0 mm 2 m/s 770 mmHg 90%
    05:00 +8°C° 0 mm 2 m/s 770 mmHg 90%
    06:00 +10°C° 0 mm 3 m/s 771 mmHg 81%
    07:00 +12°C° 0 mm 4 m/s 771 mmHg 72%
    08:00 +13°C° 0 mm 5 m/s 771 mmHg 63%
    09:00 +15°C° 0 mm 5 m/s 771 mmHg 56%
    10:00 +17°C° 0 mm 5 m/s 771 mmHg 49%
    11:00 +19°C° 0 mm 5 m/s 771 mmHg 42%
    12:00 +20°C° 0 mm 5 m/s 770 mmHg 39%
    13:00 +20°C° 0 mm 5 m/s 770 mmHg 37%
    14:00 +21°C° 0 mm 5 m/s 770 mmHg 35%
    15:00 +20°C° 0 mm 6 m/s 770 mmHg 37%
    16:00 +20°C° 0 mm 6 m/s 769 mmHg 40%
    17:00 +19°C° 0 mm 6 m/s 769 mmHg 42%
    18:00 +16°C° 0 mm 5 m/s 769 mmHg 48%
    19:00 +14°C° 0 mm 4 m/s 769 mmHg 54%
    20:00 +12°C° 0 mm 3 m/s 769 mmHg 60%
    21:00 +11°C° 0 mm 3 m/s 769 mmHg 63%
    22:00 +12°C° 0 mm 2 m/s 769 mmHg 67%
    23:00 +10°C° 0 mm 2 m/s 769 mmHg 70%
    Voir plus